Stations météo

Publicité
Le Havre/Octeville, France (7046): Température de l'air & dewpoint: 13.03.2019 06:00:00 - 19.03.2019 06:00:00 (CET)Le Havre/Octeville, France (7046): Vitesse du vent & gusts: 13.03.2019 06:00:00 - 19.03.2019 06:00:00 (CET)Le Havre/Octeville, France (7046): Direction du vent: 13.03.2019 06:00:00 - 19.03.2019 06:00:00 (CET)Le Havre/Octeville, France (7046): reduced air pressure: 13.03.2019 06:00:00 - 19.03.2019 06:00:00 (CET)Le Havre/Octeville, France (7046): visibility: 13.03.2019 06:00:00 - 19.03.2019 06:00:00 (CET)Le Havre/Octeville, France (7046): Quantités de précipitations: 13.03.2019 06:00:00 - 19.03.2019 06:00:00 (CET)
Date & Time tt [°C] td [°C] ff [km/h] ff [knt] fx [km/h] fx [knt] dd ppp [hPa] vv [km] rr [mm]
19.03.2019 06:00:00 7,3 6,7 13 7 17 9 W 1027,3 7 0,0
19.03.2019 05:00:00 7,2 6,6 11 6 18 10 WSW 1026,8 12 0,0
19.03.2019 04:00:00 7,5 6,9 11 6 19 10 SW 1026,3 12 0,0
19.03.2019 03:00:00 7,5 6,8 6 3 10 6 SW 1026,4 13 0,4
19.03.2019 02:00:00 7,1 6,2 6 4 24 13 S 1026,4 11 2,4
19.03.2019 01:00:00 7,0 6,1 7 4 16 9 SSW 1026,3 2,6 4,1
19.03.2019 00:00:00 6,9 5,2 6 3 16 9 SW 1026,1 59 0,0
18.03.2019 23:00:00 7,0 5,6 9 5 21 11 W 1025,9 58 0,0
18.03.2019 22:00:00 7,2 4,7 13 7 28 15 WNW 1025,7 60 0,0
18.03.2019 21:00:00 7,5 5,1 17 9 29 16 WNW 1025,2 51 0,0
18.03.2019 20:00:00 7,7 5,5 19 10 31 17 NW 1024,8 45 0,0
18.03.2019 19:00:00 7,6 4,7 16 8 37 20 NW 1024,4 56 0,6
18.03.2019 18:00:00 8,4 5,0 13 7 22 12 NW 1024,1 20 0,0
18.03.2019 17:00:00 8,6 4,2 16 9 29 16 NW 1023,7 50 0,0
18.03.2019 16:00:00 9,2 5,9 18 10 27 14 NW 1023,3 18 0,0
18.03.2019 15:00:00 9,2 5,6 14 8 26 14 NW 1023,5 18 0,0
18.03.2019 14:00:00 9,7 5,5 16 8 29 16 WNW 1023,4 18 0,0
18.03.2019 13:00:00 9,1 4,7 18 10 29 16 NW 1023,7 18 0,0
18.03.2019 12:00:00 9,4 4,8 14 8 29 16 NW 1023,5 19 0,0
18.03.2019 11:00:00 9,3 4,3 20 11 29 16 NNW 1023,0 19 0,0
18.03.2019 10:00:00 9,0 4,8 20 11 30 16 NNW 1022,7 19 0,0
18.03.2019 09:00:00 8,5 4,1 18 10 31 17 NW 1022,0 20 0,0
18.03.2019 08:00:00 7,4 3,1 21 11 35 19 NNW 1021,4 46 0,0
18.03.2019 07:00:00 7,0 2,9 23 12 38 21 NNW 1020,7 43 0,0
18.03.2019 06:00:00 7,3 3,7 24 13 42 23 NNW 1020,2 37 0,0
18.03.2019 05:00:00 7,7 4,3 26 14 41 22 NNW 1019,4 19 0,0
18.03.2019 04:00:00 7,6 4,2 26 14 46 25 NNW 1019,1 38 0,0
18.03.2019 03:00:00 7,9 4,3 23 12 44 24 NW 1018,6 43 0,0
18.03.2019 02:00:00 7,7 4,5 29 16 46 25 NNW 1017,7 20 0,0
18.03.2019 01:00:00 7,9 4,7 24 13 55 30 NNW 1017,2 20 0,0
18.03.2019 00:00:00 8,1 4,7 33 18 53 28 WNW 1016,5 19 0,0
17.03.2019 23:00:00 7,4 4,4 22 12 50 27 WNW 1016,1 19 0,0
17.03.2019 22:00:00 6,4 2,7 33 18 62 33 W 1015,9 20 0,4
17.03.2019 21:00:00 7,6 3,4 33 18 58 31 W 1015,1 46 0,0
17.03.2019 20:00:00 7,5 2,8 32 18 50 27 W 1014,5 53 0,0
17.03.2019 19:00:00 7,2 4,0 24 13 43 23 W 1014,1 51 0,0
17.03.2019 18:00:00 7,1 3,5 30 16 44 24 W 1013,4 37 0,0
17.03.2019 17:00:00 7,0 3,6 28 15 59 32 WSW 1012,7 37 0,2
17.03.2019 16:00:00 7,5 3,4 27 15 48 26 W 1012,2 20 0,0
17.03.2019 15:00:00 7,1 2,2 26 14 60 32 W 1011,6 39 0,4
17.03.2019 14:00:00 7,7 0,9 33 18 55 30 W 1011,2 31 0,0
17.03.2019 13:00:00 8,6 3,2 30 16 58 32 W 1010,7 34 0,0
17.03.2019 12:00:00 7,2 2,5 34 19 54 29 W 1009,9 42 0,0
17.03.2019 11:00:00 6,1 3,1 25 13 79 43 W 1009,4 20 0,4
17.03.2019 10:00:00 5,9 2,4 29 15 64 34 WNW 1008,4 16 1,2
17.03.2019 09:00:00 7,7 2,2 31 17 58 32 WNW 1007,2 38 0,0
17.03.2019 08:00:00 7,4 1,9 34 18 55 30 WNW 1006,1 47 0,0
17.03.2019 07:00:00 7,4 1,9 36 19 58 32 WNW 1005,2 49 0,0
17.03.2019 06:00:00 7,8 2,7 33 18 54 29 WNW 1004,5 47 0,0
17.03.2019 05:00:00 7,8 4,2 35 19 54 29 WNW 1003,8 19 0,0
17.03.2019 04:00:00 8,0 5,6 31 17 52 28 W 1003,1 38 0,0
17.03.2019 03:00:00 7,4 5,9 35 19 59 32 WNW 1002,7 11 1,0
17.03.2019 02:00:00 8,3 7,1 33 18 61 33 W 1002,2 8 1,4
17.03.2019 01:00:00 9,4 7,0 34 19 58 31 SW 1001,4 14 0,0
17.03.2019 00:00:00 10,1 5,3 34 19 61 33 SW 1002,1 47 0,0
16.03.2019 23:00:00 10,2 4,8 35 19 65 35 SW 1002,7 45 0,0
16.03.2019 22:00:00 10,3 4,9 33 18 66 35 SW 1003,8 46 0,0
16.03.2019 21:00:00 10,3 4,6 31 17 64 34 SW 1005,1 45 0,0
16.03.2019 20:00:00 10,5 4,6 35 19 56 30 SW 1005,4 46 0,0
16.03.2019 19:00:00 11,0 4,9 36 19 63 34 SW 1006,0 42 0,0
16.03.2019 18:00:00 11,6 5,2 37 20 59 32 SW 1006,3 38 0,0
16.03.2019 17:00:00 13,2 5,6 34 18 50 27 SW 1006,9 20 0,0
16.03.2019 16:00:00 13,2 5,8 33 18 59 32 SW 1007,4 20 0,0
16.03.2019 15:00:00 13,6 6,0 35 19 55 30 WSW 1008,4 37 0,0
16.03.2019 14:00:00 12,9 6,7 29 16 44 24 SW 1009,9 20 0,0
16.03.2019 13:00:00 11,5 6,0 32 17 59 32 WSW 1011,1 49 0,0
16.03.2019 12:00:00 10,8 5,5 34 18 59 32 SW 1011,7 57 0,0
16.03.2019 11:00:00 10,2 5,6 28 15 52 28 SW 1012,6 39 0,0
16.03.2019 10:00:00 9,8 6,3 29 15 48 26 SW 1013,0 42 0,0
16.03.2019 09:00:00 9,3 6,9 28 15 50 27 SW 1013,7 45 0,0
16.03.2019 08:00:00 9,2 6,8 26 14 51 27 SW 1014,1 52 0,0
16.03.2019 07:00:00 9,0 7,4 32 17 58 31 SW 1014,3 48 0,0
16.03.2019 06:00:00 9,4 7,5 24 13 45 24 SW 1014,8 56 0,0
16.03.2019 05:00:00 9,1 7,9 27 15 50 27 SW 1015,1 50 0,0
16.03.2019 04:00:00 9,5 7,9 35 19 50 27 WSW 1015,5 19 0,0
16.03.2019 03:00:00 9,4 8,3 28 15 45 25 WSW 1016,3 20 0,0
16.03.2019 02:00:00 9,1 8,5 32 17 52 28 WSW 1016,8 18 0,0
16.03.2019 01:00:00 9,2 8,7 31 17 51 28 WSW 1017,3 5 0,0
16.03.2019 00:00:00 9,5 8,7 37 20 58 31 WSW 1017,7 15 0,0
15.03.2019 23:00:00 9,5 8,4 35 19 51 27 WSW 1017,5 17 0,0
15.03.2019 22:00:00 9,6 8,7 37 20 64 35 W 1017,3 9 0,0
15.03.2019 21:00:00 9,6 8,8 38 20 59 32 WSW 1017,3 8 0,0
15.03.2019 20:00:00 9,9 8,5 39 21 59 32 W 1016,6 10 0,0
15.03.2019 19:00:00 10,1 8,9 43 23 66 36 W 1016,3 10 0,0
15.03.2019 18:00:00 10,2 9,0 42 23 66 36 W 1015,9 8 0,0
15.03.2019 17:00:00 10,4 9,2 46 25 64 35 W 1015,6 8 0,0
15.03.2019 16:00:00 10,3 9,4 44 24 68 37 W 1015,9 7 0,0
15.03.2019 15:00:00 10,5 9,4 44 24 68 37 W 1015,4 7 0,0
15.03.2019 14:00:00 10,5 9,4 42 23 63 34 W 1015,5 8 0,0
15.03.2019 13:00:00 10,4 9,3 42 23 63 34 WSW 1015,5 7 0,0
15.03.2019 12:00:00 10,3 9,2 40 21 60 32 W 1015,6 7 0,0
15.03.2019 11:00:00 10,1 9,3 40 22 67 36 W 1015,3 8 0,0
15.03.2019 10:00:00 10,2 9,3 42 23 59 32 WSW 1015,0 11 0,0
15.03.2019 09:00:00 10,0 8,9 41 22 67 36 W 1014,6 12 0,0
15.03.2019 08:00:00 9,9 8,7 44 24 66 36 W 1014,2 14 0,0
15.03.2019 07:00:00 9,8 8,9 42 23 68 37 W 1014,1 12 0,0
15.03.2019 06:00:00 9,8 9,2 42 23 66 35 W 1013,7 7 0,0
15.03.2019 05:00:00 9,8 9,2 39 21 68 37 W 1013,6 6 0,0
15.03.2019 04:00:00 9,8 9,3 41 22 63 34 W 1013,6 8 0,0
15.03.2019 03:00:00 9,6 9,1 39 21 60 32 W 1013,8 6 0,0
15.03.2019 02:00:00 9,6 9,1 37 20 57 31 W 1014,2 1,1 0,0
15.03.2019 01:00:00 9,6 9,1 37 20 56 30 W 1014,2 0,7 0,0
15.03.2019 00:00:00 9,7 9,2 34 18 52 28 W 1014,2 7 0,0
14.03.2019 23:00:00 9,7 9,2 32 18 45 25 W 1014,1 8 0,0
14.03.2019 22:00:00 9,6 9,0 29 16 53 28 W 1014,0 11 0,6
14.03.2019 21:00:00 9,7 9,1 28 15 48 26 W 1013,9 2,2 1,0
14.03.2019 20:00:00 9,9 9,1 31 17 44 24 W 1013,3 8 0,0
14.03.2019 19:00:00 9,8 9,0 32 17 59 32 W 1012,6 2,1 0,2
14.03.2019 18:00:00 10,3 8,9 41 22 63 34 W 1011,4 9 0,0
14.03.2019 17:00:00 10,2 9,1 39 21 74 40 W 1010,8 11 0,0
14.03.2019 16:00:00 10,1 9,2 41 22 82 44 W 1010,4 10 0,0
14.03.2019 15:00:00 10,1 9,0 43 23 80 43 W 1009,9 7 0,0
14.03.2019 14:00:00 9,8 9,0 54 29 81 44 W 1009,2 5 0,0
14.03.2019 13:00:00 9,2 8,6 47 25 79 42 W 1009,8 3,8 0,0
14.03.2019 12:00:00 9,0 8,2 48 26 74 40 W 1009,9 5 0,2
14.03.2019 11:00:00 8,6 8,0 50 27 81 44 W 1010,2 3,7 1,2
14.03.2019 10:00:00 8,4 7,8 49 26 81 44 W 1011,1 4,5 1,2
14.03.2019 09:00:00 8,7 7,1 49 27 76 41 W 1011,5 7 0,2
14.03.2019 08:00:00 8,3 7,4 48 26 70 38 W 1012,2 4,5 0,8
14.03.2019 07:00:00 8,0 7,2 39 21 63 34 W 1013,1 5 1,6
14.03.2019 06:00:00 7,9 7,1 39 21 63 34 WSW 1014,2 6 1,0
14.03.2019 05:00:00 8,0 6,3 40 22 62 33 W 1015,1 11 0,0
14.03.2019 04:00:00 8,3 6,3 39 21 57 31 W 1016,2 12 0,0
14.03.2019 03:00:00 8,2 5,7 32 18 50 27 W 1017,3 13 0,0
14.03.2019 02:00:00 8,2 6,0 28 15 46 25 W 1017,9 10 0,0
14.03.2019 01:00:00 8,3 5,4 28 15 63 34 W 1018,5 13 0,0
14.03.2019 00:00:00 8,4 5,9 31 17 50 27 W 1018,6 11 0,0
13.03.2019 23:00:00 8,4 5,1 35 19 57 31 W 1018,5 11 0,0
13.03.2019 22:00:00 8,2 5,0 33 18 61 33 WNW 1018,6 15 0,0
13.03.2019 21:00:00 8,4 5,1 30 16 55 30 W 1018,4 14 0,0
13.03.2019 20:00:00 8,6 3,4 34 19 54 29 WNW 1017,9 15 0,0
13.03.2019 19:00:00 8,6 3,2 32 18 65 35 WNW 1017,5 14 0,0
13.03.2019 18:00:00 8,8 3,8 37 20 61 33 WNW 1016,8 13 0,0
13.03.2019 17:00:00 9,1 4,1 40 21 68 37 WNW 1016,3 13 0,0
13.03.2019 16:00:00 9,5 3,9 39 21 68 37 WNW 1015,9 10 0,0
13.03.2019 15:00:00 10,0 4,4 40 22 79 42 WNW 1015,5 12 0,0
13.03.2019 14:00:00 9,6 4,6 44 24 77 41 WNW 1015,2 12 0,0
13.03.2019 13:00:00 9,4 4,0 49 27 87 47 WNW 1014,9 12 0,0
13.03.2019 12:00:00 9,4 4,0 48 26 73 40 W 1014,1 11 0,0
13.03.2019 11:00:00 9,2 4,4 46 25 72 39 W 1013,5 12 0,2
13.03.2019 10:00:00 6,8 4,5 44 24 70 38 W 1013,5 4,8 0,0
13.03.2019 09:00:00 7,9 4,1 42 23 68 37 W 1012,6 10 0,0
13.03.2019 08:00:00 7,0 4,3 37 20 56 30 WSW 1011,8 12 0,0
13.03.2019 07:00:00 6,9 3,9 40 22 63 34 WSW 1011,8 13 0,0
13.03.2019 06:00:00 6,8 3,9 39 21 70 38 W 1011,7 14 0,0

tt = Température de l'air
td = dewpoint
ff = Vitesse du vent
fx = gusts
dd = Direction du vent
ppp = reduced air pressure
vv = visibility
rr = Quantités de précipitations

stations d'obs. à proximité